Simultaneous Nadir Overpasses (SNOs) Predictions

Prediction of SNOs between GOES-16 and LANDSAT-8 Satellite Orbit:

Table of predicted SNOs for the next 14.0 days since TLE Epoch: 11/9/2024
Index Date Time (GOES-16) GOES-16 Lat,Lon LANDSAT-8 Lat,Lon Distance(km) Time Diff (sec)
1 11/10/2024 03:03:33 0.03, -75.20 0.43, -73.19 227.54 80
2 11/10/2024 15:27:28 -0.03, -75.22 0.63, -78.36 356.12 80
3 11/12/2024 15:15:15 -0.02, -75.24 0.03, -75.39 17.48 80
4 11/14/2024 15:00:22 -0.02, -75.26 -0.63, -72.43 322.24 80
5 11/15/2024 03:24:25 0.02, -75.25 -0.51, -77.61 269.25 80
6 11/17/2024 03:09:31 0.02, -75.27 0.16, -74.65 71.16 80
7 11/19/2024 02:57:15 0.01, -75.30 0.77, -71.67 412.47 80
8 11/19/2024 15:21:10 -0.01, -75.32 0.29, -76.83 170.26 80
9 11/21/2024 15:06:13 -0.00, -75.36 -0.32, -73.84 172.63 80
10 11/22/2024 03:30:16 -0.00, -75.35 -0.76, -79.03 417.80 80
